Total_Precipitation_Accumulation
0.00 0.00 0.01 0.01 0.01 0.02 0.02 0.03 0.04 0.06 0.09 0.17 0.28 0.44 0.60 0.66 0.75 0.82 0.95 0.98 1.19 1.26 1.46 1.83 2.27 2.56 2.83 2.76 2.76 2.66 2.72 2.92 2.96 3.08 3.20 3.44 3.40 3.36 3.61 3.85 3.95 4.10 4.14 3.97
0.00 0.00 0.01 0.01 0.01 0.02 0.02 0.03 0.06 0.13 0.15 0.23 0.35 0.49 0.65 0.76 0.74 0.90 1.07 1.09 1.42 1.61 1.67 1.90 2.31 2.58 2.81 2.90 2.88 2.89 3.05 3.09 3.18 3.48 3.94 4.34 4.61 4.71 4.76 4.92 4.90 4.77 4.60 4.47
0.00 0.01 0.01 0.01 0.01 0.02 0.03 0.05 0.07 0.14 0.21 0.29 0.43 0.73 0.82 0.78 0.80 0.98 1.20 1.23 1.44 1.71 1.89 1.81 1.89 2.07 2.40 2.70 2.87 2.93 3.24 3.57 3.90 4.35 4.84 5.21 5.53 5.68 5.50 5.30 5.18 4.95 4.73 4.54
0.01 0.01 0.01 0.01 0.01 0.03 0.04 0.04 0.06 0.09 0.19 0.36 0.41 0.74 0.88 0.89 1.00 1.10 1.22 1.15 1.30 1.39 1.60 1.77 1.78 1.88 2.13 2.41 2.70 2.98 3.26 3.82 4.55 5.17 5.66 6.09 6.22 6.16 5.97 5.69 5.30 4.86 4.50 4.19
0.01 0.01 0.01 0.01 0.01 0.01 0.02 0.03 0.06 0.09 0.12 0.26 0.32 0.60 0.89 0.96 1.04 1.16 1.33 1.22 1.19 1.26 1.31 1.45 1.57 1.70 1.96 2.18 2.48 2.83 3.19 3.84 4.50 5.10 5.66 6.05 6.21 6.08 5.78 5.32 4.80 4.30 3.83 3.44
0.01 0.01 0.01 0.01 0.00 0.01 0.01 0.03 0.07 0.11 0.15 0.31 0.30 0.48 0.96 1.17 1.25 1.41 1.41 1.45 1.53 1.41 1.32 1.32 1.35 1.42 1.56 1.80 2.12 2.54 2.97 3.46 3.96 4.33 4.83 5.13 5.30 5.23 4.89 4.39 3.77 3.31 2.98 2.68
0.03 0.02 0.01 0.01 0.01 0.01 0.01 0.05 0.15 0.25 0.28 0.34 0.28 0.51 1.05 1.32 1.33 1.44 1.43 1.52 1.61 1.51 1.40 1.32 1.29 1.28 1.36 1.56 1.90 2.17 2.41 2.81 3.07 3.37 3.75 3.96 3.96 3.80 3.57 3.33 3.02 2.57 2.20 1.89
0.08 0.06 0.02 0.01 0.01 0.01 0.01 0.03 0.20 0.39 0.37 0.40 0.49 0.86 1.31 1.33 1.23 1.25 1.31 1.31 1.33 1.22 1.23 1.27 1.29 1.28 1.35 1.40 1.56 1.75 1.87 2.04 2.17 2.29 2.49 2.52 2.47 2.38 2.34 2.17 1.94 1.69 1.42 1.14
0.15 0.10 0.04 0.01 0.01 0.01 0.02 0.05 0.10 0.18 0.25 0.46 0.83 1.30 1.63 1.49 1.41 1.32 1.17 1.02 1.11 1.10 1.09 1.15 1.20 1.24 1.28 1.28 1.27 1.29 1.30 1.34 1.35 1.37 1.48 1.54 1.51 1.47 1.40 1.29 1.16 1.03 0.91 0.79
0.14 0.11 0.06 0.03 0.02 0.03 0.04 0.06 0.09 0.16 0.44 0.63 0.90 1.35 1.86 1.92 1.86 1.78 1.48 1.17 1.15 1.16 1.19 1.06 0.98 1.03 1.11 1.08 1.06 1.01 1.02 1.02 0.95 0.89 0.90 0.94 0.97 0.92 0.87 0.82 0.78 0.72 0.67 0.60
0.12 0.12 0.09 0.06 0.07 0.08 0.07 0.08 0.10 0.19 0.32 0.63 1.09 1.64 1.74 2.00 2.05 1.90 1.61 1.31 1.28 1.23 1.19 1.14 1.14 1.06 1.07 1.06 1.02 0.96 0.94 0.92 0.88 0.83 0.80 0.74 0.67 0.64 0.59 0.55 0.51 0.48 0.44 0.41
0.13 0.17 0.15 0.11 0.10 0.09 0.11 0.11 0.12 0.28 0.33 0.46 0.96 1.74 1.81 2.04 2.12 1.96 1.92 1.70 1.48 1.39 1.30 1.24 1.22 1.11 1.03 0.97 0.95 0.93 0.87 0.80 0.75 0.74 0.70 0.63 0.57 0.52 0.48 0.43 0.39 0.35 0.34 0.32
0.13 0.27 0.38 0.47 0.37 0.18 0.13 0.12 0.15 0.19 0.29 0.53 0.95 1.74 1.93 2.02 1.95 1.89 1.78 1.73 1.77 1.74 1.60 1.40 1.23 1.04 0.89 0.78 0.75 0.76 0.77 0.72 0.69 0.70 0.71 0.65 0.56 0.50 0.47 0.43 0.39 0.34 0.33 0.32
0.14 0.28 0.51 0.89 0.70 0.32 0.18 0.16 0.20 0.24 0.45 0.68 0.90 1.40 1.70 1.90 1.99 2.06 1.98 1.92 1.88 1.62 1.26 1.04 0.97 0.89 0.81 0.74 0.69 0.65 0.64 0.63 0.63 0.67 0.72 0.70 0.65 0.58 0.52 0.47 0.44 0.38 0.33 0.30
0.17 0.31 0.33 0.39 0.35 0.25 0.23 0.22 0.26 0.31 0.35 0.60 0.87 1.30 1.70 1.86 1.98 2.02 2.06 1.96 1.68 1.43 1.21 1.05 0.97 0.92 0.85 0.74 0.64 0.56 0.55 0.55 0.55 0.62 0.63 0.61 0.57 0.56 0.51 0.46 0.42 0.37 0.32 0.29
0.20 0.37 0.34 0.36 0.32 0.36 0.40 0.36 0.38 0.38 0.47 0.65 0.95 1.38 1.63 1.87 1.97 1.91 1.92 1.83 1.74 1.60 1.43 1.28 1.15 1.03 0.93 0.77 0.66 0.63 0.63 0.62 0.59 0.60 0.60 0.54 0.49 0.47 0.42 0.39 0.34 0.30 0.30 0.29
0.26 0.37 0.49 0.48 0.32 0.48 0.79 0.60 0.52 0.55 0.63 0.82 1.13 1.37 1.35 1.45 1.63 1.73 1.76 1.71 1.71 1.64 1.56 1.44 1.33 1.24 1.10 0.94 0.84 0.79 0.76 0.70 0.65 0.66 0.60 0.55 0.51 0.48 0.40 0.35 0.34 0.33 0.34 0.33
0.27 0.43 0.50 0.54 0.62 1.07 1.05 0.70 0.65 0.70 0.77 0.73 0.87 0.96 1.05 1.12 1.24 1.36 1.43 1.58 1.73 1.72 1.62 1.52 1.39 1.31 1.23 1.10 0.96 0.84 0.73 0.66 0.65 0.65 0.59 0.53 0.50 0.48 0.42 0.39 0.41 0.37 0.36 0.36
0.20 0.41 0.60 0.72 1.00 1.24 1.10 0.74 0.73 0.99 1.13 0.75 0.69 0.73 0.76 0.81 0.95 1.28 1.40 1.54 1.69 1.67 1.60 1.53 1.39 1.31 1.26 1.12 0.95 0.81 0.74 0.66 0.63 0.57 0.51 0.48 0.46 0.47 0.45 0.43 0.43 0.39 0.39 0.38
0.19 0.33 0.65 0.87 1.22 1.52 1.40 0.68 0.49 0.86 1.46 0.90 0.71 0.76 0.81 0.95 1.15 1.19 1.10 1.16 1.37 1.53 1.60 1.54 1.37 1.21 1.11 0.93 0.78 0.71 0.67 0.62 0.58 0.47 0.40 0.40 0.43 0.44 0.40 0.39 0.42 0.40 0.39 0.40
0.46 0.55 0.75 0.98 1.33 1.45 0.82 0.46 0.58 1.22 1.42 1.07 0.89 0.87 0.97 1.15 1.18 0.96 0.87 0.98 1.12 1.30 1.38 1.31 1.21 1.09 0.90 0.74 0.68 0.66 0.58 0.52 0.44 0.37 0.34 0.37 0.42 0.44 0.40 0.39 0.41 0.41 0.38 0.41
0.63 0.85 0.98 1.13 1.43 1.43 0.59 0.45 0.79 0.95 0.78 0.75 0.72 0.68 0.74 0.72 0.69 0.69 0.77 0.90 1.03 1.14 1.12 1.06 1.02 0.92 0.78 0.69 0.68 0.68 0.61 0.49 0.40 0.40 0.38 0.39 0.40 0.32 0.30 0.40 0.42 0.38 0.41 0.43
0.53 0.74 0.94 1.12 1.27 0.99 0.53 0.43 0.46 0.52 0.58 0.56 0.57 0.53 0.57 0.60 0.61 0.62 0.68 0.79 0.88 0.93 0.89 0.81 0.72 0.71 0.68 0.66 0.68 0.67 0.59 0.47 0.45 0.51 0.50 0.44 0.42 0.39 0.36 0.38 0.38 0.38 0.39 0.37
0.55 0.42 0.58 0.79 0.77 0.63 0.48 0.43 0.38 0.35 0.40 0.40 0.41 0.44 0.52 0.61 0.61 0.60 0.58 0.61 0.66 0.71 0.71 0.68 0.63 0.64 0.61 0.57 0.56 0.57 0.50 0.45 0.52 0.58 0.53 0.47 0.45 0.43 0.38 0.36 0.30 0.30 0.29 0.27
0.58 0.65 0.85 0.99 0.79 0.71 0.62 0.49 0.40 0.35 0.31 0.30 0.35 0.39 0.44 0.46 0.46 0.45 0.46 0.47 0.48 0.49 0.55 0.57 0.56 0.54 0.48 0.44 0.42 0.40 0.39 0.42 0.54 0.58 0.52 0.46 0.37 0.33 0.34 0.28 0.19 0.17 0.16 0.14
0.45 0.75 1.20 1.05 0.82 0.84 0.70 0.53 0.44 0.43 0.45 0.42 0.35 0.31 0.32 0.34 0.35 0.34 0.37 0.41 0.41 0.41 0.45 0.47 0.47 0.43 0.38 0.35 0.37 0.35 0.32 0.33 0.43 0.49 0.45 0.36 0.27 0.25 0.23 0.23 0.19 0.12 0.09 0.09